Weather History for Billings, MT

Change the Weather History Date:

Thursday, June 20, 2013

  Actual Average Record
Temperature  
Mean Temperature 64 °F 66 °F  
Max Temperature 75 °F 79 °F 103 °F (1988)
Min Temperature 53 °F 53 °F 42 °F (1978)
Degree Days  
Heating Degree Days 1 2  
Month to date heating degree days 65 79  
Since 1 June heating degree days 65 79  
Since 1 July heating degree days 6412 6765  
Cooling Degree Days 0 3  
Month to date cooling degree days 34 40  
Year to date cooling degree days 61 57  
Since 1 June cooling degree days 34 40  
Growing Degree Days 13 (Base 50)    
Moisture  
Dew Point 30 °F    
Average Humidity 28    
Maximum Humidity 39    
Minimum Humidity 16    
Precipitation  
Precipitation 0.00 in 0.08 in 2.24 in (2010)
Month to date precipitation 0.58 1.51  
Year to date precipitation 7.02 7.37  
Snow  
Snow 0.00 in 0.00 in T in (2010)
Month to date snowfall 0.0 0.0  
Since 1 June snowfall 0.0 0.0  
Since 1 July snowfall 40.4 55.0  
Snow Depth 0.00 in    
Sea Level Pressure  
Sea Level Pressure 29.82 in    
Wind  
Wind Speed 10 mph (WNW)    
Max Wind Speed 28 mph    
Max Gust Speed 36 mph    
Visibility 10 miles    
Events      
T = Trace of Precipitation, MM = Missing Value Source: NWS Daily Summary

Daily Weather History Graph

Daily Weather History Graph

Search for Another Location

Airport:

Trip Planner

Search our weather history database for the weather conditions in past years. The results will help you decide how hot, cold, wet, or windy it might be!

Date:

Astronomy

Jun. 20, 2013 Rise Set
Actual Time 5:24 AM MDT 9:07 PM MDT
Civil Twilight 4:45 AM MDT 9:46 PM MDT
Nautical Twilight 3:54 AM MDT 10:37 PM MDT
Astronomical Twilight 2:42 AM MDT 11:49 PM MDT
Moon 6:08 PM MDT (6/20) 3:00 AM MDT (6/20)
Length of Visible Light 17h 00m
Length of Day
15h 43m
Waxing Gibbous, 89% of the Moon is Illuminated
Jun 20
Waxing Gibbous
Jun 23
Full
Jun 29
Last Quarter
Jul 8
New
Jul 15
First Quarter

Hourly Weather History & Observations

Time (MDT) Temp. Dew Point Humidity Pressure Visibility Wind Dir Wind Speed Gust Speed Precip Events Conditions
12:53 AM 61.0 °F 28.9 °F 30% 29.65 in 10.0 mi WNW 23.0 mph 35.7 mph N/A   Clear
1:53 AM 60.1 °F 28.9 °F 31% 29.66 in 10.0 mi West 20.7 mph 32.2 mph N/A   Clear
2:53 AM 55.9 °F 30.9 °F 39% 29.68 in 10.0 mi SW 12.7 mph - N/A   Clear
3:53 AM 55.9 °F 27.0 °F 33% 29.70 in 10.0 mi West 13.8 mph - N/A   Clear
4:53 AM 55.9 °F 27.0 °F 33% 29.73 in 10.0 mi South 9.2 mph - N/A   Partly Cloudy
5:53 AM 54.0 °F 28.9 °F 38% 29.76 in 10.0 mi South 8.1 mph - N/A   Partly Cloudy
6:53 AM 55.9 °F 30.0 °F 37% 29.78 in 10.0 mi WSW 9.2 mph - N/A   Scattered Clouds
7:53 AM 61.0 °F 30.9 °F 32% 29.80 in 10.0 mi SW 8.1 mph - N/A   Scattered Clouds
8:53 AM 63.0 °F 27.0 °F 26% 29.83 in 10.0 mi SW 10.4 mph - N/A   Partly Cloudy
9:53 AM 64.0 °F 30.0 °F 28% 29.85 in 10.0 mi SW 9.2 mph - N/A   Partly Cloudy
10:53 AM 64.9 °F 28.9 °F 26% 29.85 in 10.0 mi Variable 4.6 mph 17.3 mph N/A   Partly Cloudy
11:53 AM 70.0 °F 27.0 °F 20% 29.84 in 10.0 mi WNW 13.8 mph 19.6 mph N/A   Partly Cloudy
12:53 PM 71.1 °F 27.0 °F 19% 29.84 in 10.0 mi West 11.5 mph - N/A   Partly Cloudy
1:53 PM 72.0 °F 26.1 °F 18% 29.83 in 10.0 mi West 4.6 mph - N/A   Partly Cloudy
2:53 PM 73.0 °F 27.0 °F 18% 29.84 in 10.0 mi SW 10.4 mph 19.6 mph N/A   Partly Cloudy
3:53 PM 75.0 °F 27.0 °F 17% 29.84 in 10.0 mi NNW 6.9 mph - N/A   Scattered Clouds
4:53 PM 73.9 °F 25.0 °F 16% 29.84 in 10.0 mi WSW 3.5 mph - N/A   Partly Cloudy
5:53 PM 73.9 °F 30.0 °F 20% 29.85 in 10.0 mi North 15.0 mph - N/A   Partly Cloudy
6:53 PM 71.1 °F 30.9 °F 23% 29.86 in 10.0 mi NNE 13.8 mph - N/A   Partly Cloudy
7:53 PM 70.0 °F 32.0 °F 25% 29.88 in 10.0 mi NNE 11.5 mph - N/A   Partly Cloudy
8:53 PM 66.0 °F 35.1 °F 32% 29.90 in 10.0 mi NNE 9.2 mph - N/A   Scattered Clouds
9:53 PM 61.0 °F 34.0 °F 36% 29.93 in 10.0 mi North 6.9 mph - N/A   Partly Cloudy
10:53 PM 61.0 °F 34.0 °F 36% 29.94 in 10.0 mi North 6.9 mph - N/A   Scattered Clouds
11:53 PM 61.0 °F 35.1 °F 38% 29.93 in 10.0 mi NNE 5.8 mph - N/A   Mostly Cloudy